This is the latest recevied weather packets stored in our database for station/object N3TJJ-11. If no packets are shown the sender has not sent any weather packets the latest 1 day(s).
| Time | Temp. | Humidity | Pressure | Rain* | Wind** | Luminosity | Snow |
|---|---|---|---|---|---|---|---|
| 1777984544 | 15.56° C | 67% | 1009.9 hPa | 0 mm | 4.47 m/s, 243° | - | - |
| 1777984428 | 15.56° C | 67% | 1009.9 hPa | 0 mm | 4.47 m/s, 236° | - | - |
| 1777983824 | 15° C | 69% | 1009.9 hPa | 0 mm | 4.02 m/s, 239° | - | - |
| 1777983225 | 15° C | 70% | 1009.6 hPa | 0 mm | 3.58 m/s, 234° | - | - |
| 1777983104 | 15° C | 70% | 1009.6 hPa | 0 mm | 3.58 m/s, 229° | - | - |
| 1777982634 | 14.44° C | 73% | 1009.6 hPa | 0 mm | 3.13 m/s, 213° | - | - |
| 1777982384 | 13.89° C | 73% | 1009.6 hPa | 0 mm | 3.13 m/s, 234° | - | - |
| 1777982025 | 13.89° C | 74% | 1009.5 hPa | 0 mm | 3.13 m/s, 205° | - | - |
| 1777981664 | 13.89° C | 74% | 1009.5 hPa | 0 mm | 3.13 m/s, 185° | - | - |
| 1777981425 | 13.33° C | 75% | 1009.5 hPa | 0 mm | 3.13 m/s, 203° | - | - |
| 1777980944 | 13.33° C | 75% | 1009.4 hPa | 0 mm | 3.13 m/s, 242° | - | - |
| 1777980825 | 13.33° C | 75% | 1009.4 hPa | 0 mm | 3.13 m/s, 249° | - | - |
| 1777980224 | 13.33° C | 75% | 1009.3 hPa | 0 mm | 2.68 m/s, 228° | - | - |
| 1777979667 | 13.33° C | 76% | 1009.1 hPa | 0 mm | 2.68 m/s, 214° | - | - |
| 1777979642 | 13.33° C | 76% | 1009.1 hPa | 0 mm | 2.68 m/s, 214° | - | - |
| 1777979504 | 12.78° C | 76% | 1009.1 hPa | 0 mm | 2.68 m/s, 230° | - | - |
| 1777979025 | 13.33° C | 75% | 1009 hPa | 0 mm | 3.13 m/s, 238° | - | - |
| 1777978784 | 13.33° C | 76% | 1009 hPa | 0 mm | 3.13 m/s, 202° | - | - |
| 1777978425 | 13.33° C | 76% | 1009 hPa | 0 mm | 2.68 m/s, 236° | - | - |
| 1777978064 | 12.78° C | 76% | 1008.9 hPa | 0 mm | 2.68 m/s, 232° | - | - |
| 1777977826 | 12.78° C | 76% | 1008.8 hPa | 0 mm | 2.68 m/s, 219° | - | - |
| 1777977344 | 12.78° C | 77% | 1008.7 hPa | 0 mm | 2.68 m/s, 231° | - | - |
| 1777977226 | 12.78° C | 77% | 1008.7 hPa | 0 mm | 2.68 m/s, 230° | - | - |
| 1777976624 | 12.78° C | 77% | 1008.7 hPa | 0 mm | 2.68 m/s, 233° | - | - |
| 1777976027 | 12.78° C | 77% | 1008.5 hPa | 0 mm | 2.68 m/s, 213° | - | - |
* Rain latest hour (hover to see other rain measurements)
** Current wind speed in m/s (hover to see current wind gust speed)